Tracking 19242 objects as of 20-Sep-2018
HD Live streaming from Space Station
objects crossing your sky now

FENGYUN 1C DEB

Track FENGYUN 1C DEB now!
10-day predictions


NORAD ID: 37067
Int'l Code: 1999-025EFB
Perigee: 835.3 km
Apogee: 1,139.8 km
Inclination: 99.4 °
Period: 104.7 minutes
Semi major axis: 7358 km
RCS: 0.001 m2 (small)
Launch date: May 10, 1999
Source: People's Republic of China (PRC)
Launch site: Taiyaun Space Center, China (TSC)

Note: This is SATELLITE DEBRIS
aabbcc
Your satellite tracking list
Your tracking list is empty




NASA's NSSDC Master Catalog

Two Line Element Set (TLE):
1 37067U 99025EFB 18259.90658682 -.00001493 +00000-0 -12894-2 0  9992
2 37067 099.3850 141.0839 0206952 246.1750 111.7584 13.75357556208963
Source of the keplerian elements: AFSPC